EK1111 OMFJ-OMDB

Flight info

Callsign EK1111
Flight time 0h 24m
Altitude 12000
Route ULDOT DCT SEDPO DCT MODUS
Aircraft B77W/H-SDE1E2E3FGHIJ2J3J4J5M1RWXY/LB1D1

Departure

Time 2026-04-17 13:35
Airport Fujairah International Airport (OMFJ)

Arrival

Time 2026-04-17 13:59
Airport Dubai International Airport (OMDB)
Time Latitude Longitude Altitude Speed Heading
2026-04-17 13:30 25.11849 56.30722 136 ft 0 kts 112°
2026-04-17 13:30 25.11848 56.30723 136 ft 1 kts 112°
2026-04-17 13:31 25.11845 56.30733 129 ft 2 kts 112°
2026-04-17 13:31 25.11838 56.30751 130 ft 3 kts 112°
2026-04-17 13:31 25.11827 56.30779 133 ft 5 kts 112°
2026-04-17 13:31 25.11814 56.30815 131 ft 5 kts 112°
2026-04-17 13:32 25.11799 56.30853 131 ft 6 kts 112°
2026-04-17 13:32 25.11787 56.30886 130 ft 0 kts 112°
2026-04-17 13:32 25.11786 56.30888 130 ft 1 kts 112°
2026-04-17 13:33 25.11785 56.30890 131 ft 4 kts 112°
2026-04-17 13:34 25.11713 56.31084 123 ft 67 kts 112°
2026-04-17 13:34 25.11411 56.31876 94 ft 153 kts 113°
2026-04-17 13:34 25.10886 56.33250 75 ft 233 kts 113°
2026-04-17 13:34 25.10257 56.35026 724 ft 265 kts 108°
2026-04-17 13:35 25.09906 56.37057 1653 ft 267 kts 102°
2026-04-17 13:35 25.09331 56.39040 1895 ft 270 kts 112°
2026-04-17 13:35 25.08614 56.40975 1857 ft 279 kts 114°
2026-04-17 13:35 25.07854 56.42972 1898 ft 282 kts 114°
2026-04-17 13:36 25.07087 56.44990 1900 ft 288 kts 114°
2026-04-17 13:36 25.06271 56.47018 1878 ft 289 kts 123°
2026-04-17 13:36 25.04981 56.48615 1903 ft 282 kts 150°
2026-04-17 13:36 25.03202 56.49400 1917 ft 273 kts 179°
2026-04-17 13:37 25.01386 56.49155 2337 ft 259 kts 211°
2026-04-17 13:37 24.99985 56.48016 3020 ft 247 kts 239°
2026-04-17 13:37 24.99300 56.46329 3668 ft 240 kts 264°
2026-04-17 13:37 24.99148 56.44487 4272 ft 245 kts 270°
2026-04-17 13:38 24.99105 56.42607 4990 ft 246 kts 271°
2026-04-17 13:38 24.99068 56.40710 5709 ft 248 kts 272°
2026-04-17 13:38 24.99028 56.38793 6389 ft 252 kts 272°
2026-04-17 13:38 24.99071 56.36849 6951 ft 256 kts 277°
2026-04-17 13:39 24.99254 56.34894 7615 ft 256 kts 278°
2026-04-17 13:39 24.99470 56.32937 8277 ft 259 kts 278°
2026-04-17 13:39 24.99698 56.30955 8833 ft 265 kts 279°
2026-04-17 13:39 24.99943 56.28957 9473 ft 265 kts 278°
2026-04-17 13:40 25.00196 56.26942 10164 ft 267 kts 278°
2026-04-17 13:40 25.00476 56.24878 10532 ft 282 kts 279°
2026-04-17 13:40 25.00791 56.22661 10689 ft 303 kts 278°
2026-04-17 13:40 25.01132 56.20285 10827 ft 325 kts 279°
2026-04-17 13:41 25.01498 56.17748 10984 ft 346 kts 279°
2026-04-17 13:41 25.01883 56.15064 11205 ft 359 kts 279°
2026-04-17 13:41 25.02272 56.12353 11167 ft 354 kts 279°
2026-04-17 13:41 25.02651 56.09705 11156 ft 343 kts 279°
2026-04-17 13:42 25.03016 56.07152 11145 ft 328 kts 279°
2026-04-17 13:42 25.03365 56.04723 11146 ft 315 kts 279°
2026-04-17 13:42 25.03701 56.02390 11135 ft 301 kts 279°
2026-04-17 13:42 25.04024 56.00161 11110 ft 288 kts 279°
2026-04-17 13:43 25.04316 55.98115 11113 ft 281 kts 279°
2026-04-17 13:43 25.04624 55.95949 11143 ft 291 kts 279°
2026-04-17 13:43 25.04939 55.93745 11164 ft 301 kts 279°
2026-04-17 13:43 25.05272 55.91427 11182 ft 311 kts 279°
2026-04-17 13:44 25.05854 55.89129 11168 ft 316 kts 298°
2026-04-17 13:44 25.07153 55.87153 11208 ft 322 kts 306°
2026-04-17 13:44 25.08442 55.85093 11223 ft 330 kts 297°
2026-04-17 13:44 25.09369 55.82738 11257 ft 340 kts 287°
2026-04-17 13:45 25.09917 55.80162 11257 ft 350 kts 278°
2026-04-17 13:45 25.10173 55.77445 11275 ft 360 kts 274°
2026-04-17 13:45 25.10253 55.74657 11302 ft 369 kts 271°
2026-04-17 13:45 25.10253 55.71825 11295 ft 367 kts 270°
2026-04-17 13:46 25.10232 55.69036 11166 ft 359 kts 270°
2026-04-17 13:46 25.10215 55.66316 11008 ft 350 kts 270°
2026-04-17 13:46 25.10440 55.63681 10982 ft 352 kts 285°
2026-04-17 13:46 25.11409 55.61222 10941 ft 347 kts 300°
2026-04-17 13:47 25.12723 55.59041 10784 ft 336 kts 301°
2026-04-17 13:47 25.13939 55.56911 10653 ft 318 kts 300°
2026-04-17 13:47 25.15059 55.54877 10314 ft 302 kts 300°
2026-04-17 13:47 25.16176 55.52981 9852 ft 289 kts 310°
2026-04-17 13:48 25.17749 55.51679 9325 ft 280 kts 336°
2026-04-17 13:48 25.19636 55.51331 8835 ft 276 kts
2026-04-17 13:48 25.21461 55.51955 8199 ft 278 kts 27°
2026-04-17 13:48 25.23044 55.53173 7656 ft 275 kts 33°
2026-04-17 13:49 25.24547 55.54463 7048 ft 272 kts 34°
2026-04-17 13:49 25.25821 55.56001 6426 ft 275 kts 60°
2026-04-17 13:49 25.26326 55.58019 5882 ft 273 kts 90°
2026-04-17 13:49 25.25950 55.60026 5417 ft 267 kts 112°
2026-04-17 13:50 25.25201 55.61912 5069 ft 273 kts 114°
2026-04-17 13:50 25.24401 55.63816 4627 ft 273 kts 115°
2026-04-17 13:50 25.23604 55.65702 4160 ft 269 kts 115°
2026-04-17 13:50 25.22818 55.67560 3709 ft 265 kts 115°
2026-04-17 13:51 25.22045 55.69396 3298 ft 262 kts 115°
2026-04-17 13:51 25.21054 55.71054 2819 ft 257 kts 142°
2026-04-17 13:51 25.19542 55.71947 2418 ft 240 kts 175°
2026-04-17 13:51 25.17916 55.71817 2284 ft 239 kts 206°
2026-04-17 13:52 25.16412 55.71074 2311 ft 234 kts 210°
2026-04-17 13:52 25.14994 55.70325 2293 ft 218 kts 211°
2026-04-17 13:52 25.13810 55.69411 2342 ft 198 kts 234°
2026-04-17 13:52 25.13191 55.68167 2359 ft 180 kts 260°
2026-04-17 13:53 25.13238 55.66801 2353 ft 178 kts 283°
2026-04-17 13:53 25.13390 55.65483 2331 ft 170 kts 275°
2026-04-17 13:53 25.13293 55.64206 2316 ft 171 kts 253°
2026-04-17 13:53 25.12825 55.62969 2346 ft 178 kts 251°
2026-04-17 13:54 25.12788 55.60384 2356 ft 174 kts 288°
2026-04-17 13:54 25.13142 55.59092 2328 ft 175 kts 287°
2026-04-17 13:55 25.14110 55.56735 2351 ft 162 kts 298°
2026-04-17 13:55 25.14666 55.55662 2331 ft 161 kts 299°
2026-04-17 13:55 25.15815 55.53551 2332 ft 164 kts 299°
2026-04-17 13:56 25.17007 55.51397 2328 ft 161 kts 300°
2026-04-17 13:56 25.17582 55.50356 2282 ft 160 kts 300°
2026-04-17 13:56 25.18174 55.49288 2056 ft 164 kts 300°
2026-04-17 13:57 25.18765 55.48223 1850 ft 161 kts 300°
2026-04-17 13:57 25.19344 55.47177 1640 ft 158 kts 300°
2026-04-17 13:57 25.20507 55.45077 1229 ft 160 kts 298°
2026-04-17 13:58 25.21086 55.44026 998 ft 163 kts 299°
2026-04-17 13:58 25.22286 55.41860 615 ft 169 kts 300°
2026-04-17 13:58 25.22900 55.40758 365 ft 169 kts 299°
2026-04-17 13:59 25.24091 55.38575 34 ft 156 kts 301°
2026-04-17 13:59 25.24581 55.37706 19 ft 97 kts 301°
2026-04-17 13:59 25.24769 55.37307 18 ft 47 kts 286°
2026-04-17 14:00 25.24783 55.37137 19 ft 25 kts 271°
2026-04-17 14:00 25.24775 55.36875 31 ft 25 kts 265°
2026-04-17 14:00 25.24742 55.36759 32 ft 11 kts 229°
2026-04-17 14:00 25.24715 55.36712 32 ft 11 kts 239°